Weather in Fort-de-France

Martinique     14°36′41″N   61°03′35″W
temp.,
°C
wind,
m/s
gust,
m/s
humid.,
%
clouds,
%
prec.,
mm/h
press.,
hPa
HPBL,
m
17 may, mon
mon1723:00+26ene68780 0.1 1016620
02:00+25ene58791 0.1 1015639
05:00+25ene698017 0.0 1015702
08:00+27e68714 0.0 10161011
11:00+29e78677 0.1 10161061
14:00+29e78675 0.1 10141009
17:00+27e78756 0.1 1013905
20:00+26e688212 0.1 1015725
18 may, tue
tue1823:00+26e698380 0.1 1016726
02:00+26e6883100 0.2 1015681
05:00+25e588314 0.1 1015632
08:00+27e57738 0.3 1017944
11:00+29e6864100 0.1 10161005
14:00+29ese786612 0.1 10151060
17:00+27e677312 0.1 1014928
20:00+26e687881 0.2 1016823
19 may, wed
wed1923:00+26e687899 0.1 1017788
02:00+26e58765 0.2 1015639
05:00+25ene587713 0.1 1015445
08:00+28e686764 0.1 1016835
11:00+29ese7961100 0.0 10161148
14:00+29ese7964100 0.0 10141100
17:00+28e686944 0.0 1014958
20:00+26e68787 0.0 1015879
20 may, thu
thu2023:00+26e687815 0.1 1017836
02:00+26e687818 0.3 1015773
05:00+26e6978100 0.8 1016727
08:00+27e7972100 1.2 1016844
11:00+29e796385 0.0 10161010
14:00+29e796584 0.0 10141100
17:00+27e787271 0.0 1014968
20:00+26e6107736 0.0 1016862
21 may, fri
fri2123:00+26e61077100 0.1 1016922
02:00+26e697396 0.3 1015788
05:00+26e6107639 0.1 1015861
08:00+27e7107160 0.3 1016974
11:00+29e7106539 0.1 10161110
14:00+29e796483 0.1 10141099
17:00+27e79716 0.0 1014983
20:00+26e7107922 0.0 1015891